map of USH home
USH - Airport
Location
City:  Ushuaia, Tierra del Fuego, Argentina
Name:Islas Malvinas Argentinas International Airport
ICAO:SAWH
IATA:USH

Details
Type:Airport (Aerodrome, Airfield)
Use:Public/Civil, International (customs port of entry)
Latitude:5450'36"S (-54.843277)
Longitude:6817'45"W (-68.295749)
Datum:WGS 1984
Elevation:71 ft (22 m)
Variation:12.30E (WMM2015v2 magnetic declination)
-0.07 annual change
Runways:1
Longest:9186 × 148 ft (2800 × 45 m), paved

Time
Time Zone:UTC-3
Local Time:

Weather
METAR:SAWH 041400Z 07003KT CAVOK 18/07 Q1007
TAF:SAWH 041100Z 0412/0512 VRB10KT CAVOK TX24/0419Z TN12/0510Z
BECMG 0418/0421 02015KT
BECMG 0500/0503 32010KT
BECMG 0503/0512 VRB07KT

Related Locations
Nearby:
Farthest:UIUR: 12387 mi / 19935 km
Varvarinsk [Varvarinsk Airport], BU, RU

Find:

   beyond  
but within

Other Information
Maps:
NOTAMs:
Links:
Sources:

  
  • flag of Argentina
  

Sectional Chart

Flight Planning
at skyvector.com

Satellite Image

Google Maps Satellite view

 

Copyright © 2004-2019 Karl L. Swartz. All rights reserved.
The Great Circle Mapper name and logo are trademarks of the Great Circle Mapper.
All other trademarks mentioned herein belong to their respective owners.
Please see credits for attibutions and further copyright information.

  Follow gcmap on Facebook Follow gcmap on Twitter GCmap on LinkedIn

hCard Microformat

Geo Microformat